Погода в Кингисеппе

Погода в Кингисеппе : погода сейчас, прогноз погоды и архив. Всё, что Вы хотите узнать о погоде в Кингисеппе!

Поиск расширенной информации на нашем сайте:

Другие новости

Новости СМИ2

Главная страница сайта

Новости сайта

02.10.2013

Напоминаем, что на нашем новом сайте вы можете получить высокодетализированные прогнозы погоды по пунктам России, СНГ и мира (включающие важные для авиации метеовеличины, такие как направление и скорость ветра, видимость, явления погоды, количество и форма облачности, нижняя и верхняя граница облачности), а также ознакомиться с разнообразными материалами по авиационной метеорологии и подборкой полезных ссылок на эту тему.

Сайт Метеоцентр.Азия посвящён разработке технологий оптимизации авиаметеорологического обслуживания, включая проектирование и перспективное создание нескольких автоматизированных авиаметеорологических систем:
- система выпуска высокодетальных прогностических карт явлений погоды для нижнего воздушного пространства по России и ближнему зарубежью;
- система верификации прогнозов TAF (выпускаемых синоптиками официальных АМСГ РФ и ближнего зарубежья) и AUTOTAF (выпускаемых сайтом Метеоцентр.Азия) - выявление ошибок, онлайн-сопоставление с фактической погодой METAR, автоматическое внесение коррективов в прогнозы при резком отклонении фактической погоды от прогноза, подсчёт оправдываемости прогнозов по элементам и в целом;
- система обработки, анализа и отображения авиаметеорологической информации для применения провайдерами метеорологической информации.

Рекомендуем: Ремонт колесных дисков

Погода в Кингисеппе - сегодня

Время (UTC), дата Ветер
(°,м/с) 
Видим.   Явления Облачность Т
(°С)
Тd
(°С)
f(%) Тe
(°С)
Pmin
(гПа)
dP
(гПа)
Po
(мм)
O2
(г/м3)
Тmin Tmax R s Состояние
почвы
03 18.01.17 220 (ЮЗ) 10 км    10/10 540 м 
[St]
-3.9 -4.4 96 -5  1030.2  -1.4  771  316  -5.2    0.0     
06 18.01.17 220 (ЮЗ) 10 км    10/10 240 м 
[St]
-2.9 -3.4 96 -5  1029  -1.2  770  314  -5.1      равномерный
сухой снег
100% 
09 18.01.17 230 (ЮЗ) 4000 м  слаб. ливневой снег  10/10 210 м кучево-дожд. 
[Cb cap]
-1.8 -2.3 96 -4  1029.2  0.2  770  313           
12 18.01.17 220 (ЮЗ) 4000 м  слаб. переохл. морось (гололёд){ливн. осадки} [диам. гололёда 1 мм]  10/10 150 м 
[St]
-1 -1 100 -2  1028.1  -1  769  311           
15 18.01.17 220 (ЮЗ) 4000 м  слаб. переохл. морось (гололёд){снег} [диам. гололёда 2 мм]  10/10 120 м 
[St]
-0.8 -0.8 100 -3  1027.4  -0.7  769  311      0.4     
18 18.01.17 220 (ЮЗ) 4000 м  дымка{снег, морось} [диам. гололёда 1 мм]  10/10 150 м 
[St]
-0.5 -0.5 100 -2  1025.7  -1.7  767  310    -0.5  0.4     
21 18.01.17 230 (ЮЗ) 10 км  [диам. гололёда 1 мм]  10/10 150 м 
[St]
-0.1 -0.1 100 -2  1023.7  -1.9  766  309           
00 19.01.17 230 (ЮЗ) 10 км  [диам. гололёда 0 мм]  10/10 120 м 
[St]
+0.5 +0.5 100 -1  1021.1  -2.6  764  307           
03 19.01.17 230 (ЮЗ) 4000 м  слаб. морось  10/10 120 м 
[St]
+0.8 +0.8 100 -1  1019.5  -1.6  763  306  -0.8    0.3     
06 19.01.17 250 (З) 4000 м  слаб. морось  10/10 150 м 
[St]
+1.2 +1.2 100 +1  1018.4  -1  762  305  -0.5    0.4  равномерный
мокрый или
старый снег
100% 
09 19.01.17 240 (ЮЗ) 4000 м  слаб. морось  10/10 100 м 
[St]
+1.6 +1.6 100 1017.4  -1  761  305           
12 19.01.17 240 (ЮЗ) 10 км  в посл. час морось  10/10 150 м 
[St]
+1.6 +1.6 100 1015.9  -1.4  760  304           
15 19.01.17 230 (ЮЗ) 10 км    10/10 180 м 
[St]
+1.7 +1.7 100 1014.1  -1.8  759  304      0.7     
18 19.01.17 240 (ЮЗ) 10 км    10/10 210 м 
[St]
+1.8 +1.8 100 1013  -1.1  758  303    +1.8  0.6     
21 19.01.17 270 (З) 10 км    ясно 
+1.9 +0.8 92 +1  1013.3  0.3  758  303           
00 20.01.17 290 (З) 10 км    ясно 
+1.5 -0.8 85 1014.8  1.5  759  304           
03 20.01.17 310 (СЗ) 4{10}  10 км    ясно 
+0 -5.1 68 -2  1016.6  1.7  761  307  -0.1         
06 20.01.17 260 (З) 10 км    ясно 
-3.4 -6.8 77 -3  1017.9  1.2  761  311  -3.4      равномерный
сухой снег
100% 
09 20.01.17 250 (З) 20000 м    8/0 верхняя 
[Cs]
-0.7 -5.7 69 -2  1018.6  0.7  762  308           
12 20.01.17 250 (З) 20000 м    8/0 средняя, верхняя 
[Ac trans|Ci fib]
-0.3 -4.5 73 -1  1016.8  -1.7  761  307           
15 20.01.17 240 (ЮЗ) 4000 м  слаб. ливневой снег  10/10 630 м кучево-дожд. 
[Cb cap]
-0.5 -3 83 -2  1014.8  -2  759  307      0.0     
18 20.01.17 240 (ЮЗ) 4000 м  слаб. ливневой снег  10/10 120 м кучево-дожд. 
[Cb cap]
-0.5 -0.8 98 -1  1013.3  -1.5  758  306    +0.5  0.3     
21 20.01.17 280 (З) 10 км  {ливн. осадки}  10/10 210 м 
[St]
+0.4 -0.4 94 -1  1013.5  0.2  758  305           
00 21.01.17 290 (З) 10 км  {ливн. осадки}  10/10 150 м 
[St]
-0.6 -1.8 92 -2  1014.7  1.2  759  307           
03 21.01.17 280 (З) 10 км    10/10 240 м 
[St]
-0.8 -2.3 90 -3  1015.6  0.9  760  307  -1    0.6     
Время (UTC), дата Ветер
(°,м/с) 
Видим.   Явления Облачность Т
(°С)
Тd
(°С)
f(%) Тe
(°С)
Pmin
(гПа)
dP
(гПа)
Po
(мм)
O2
(г/м3)
Тmin Tmax R s Состояние
почвы

Для получения пояснительной информации подведите курсор к названию столбца.

ПОГОДА в Кингисеппе - архив

Всё, что Вы хотите узнать о погоде в Кингисеппе - удобно и подробно!

Выберите нужную дату (начиная с 1 января 2015* года) и нажмите кнопку "Найти".
Будут отображены архивные сводки погоды по пункту Кингисепп, начиная с указанной даты.


Отображать данные в формате CSV (для использования в таблицах Excel)


Внимание! Наш архив погоды предназначен исключительно для личного некоммерческого использования в познавательных целях. Если Вам необходимы официальные справки о состоянии погоды (для производственных, юридических, коммерческих и т.п. целей), обращайтесь в органы Росгидромета.

*Примечание: данная дата относится к архиву по метеостанциям СССР (Россия, СНГ, Балтия).
Архив по метеостанциям Зарубежной Европы и Азии (кроме Китая) хранится 10 дней, по другим регионам земного шара (Китай, Африка, Америка, Австралия, Океания) - 1 день.

Кингисепп - район местоположения метеостанции


Название, широта, долгота, высота метеостанции:
Кингисепп 59.4°ш. 28.6°д. 19 м над ур. моря [Российская Федерация]

Дополнительная информация

В oтличие oт бoльшинства пoгoдных сайтoв мы публикуем пoдрoбную метеoинфoрмацию в детальнoм прoфессиoнальнoм фoрмате.

Характеристики температуры и влажнoсти вoздуха измеряются на высoте 2 м в тени вдали oт зданий и деревьев.
Скoрoсть ветра измеряется на высoте 10 м (на урoвне рoста челoвека скoрoсть ветра ниже в 1.5-2 раза). Если метеoстанция нахoдится в гoрoде или в лесу, тo скoрoсть ветра занижена на 2-4 м/с пo сравнению с oткрытым местoм. Скoрoсть ветра над акватoриями крупных рек и oзёр, а также на вершинах хoлмoв на 2-5 м/с выше, чем в oбычных услoвиях.
Атмoсфернoе давление в разных тoчках местнoсти мoжет значительнo oтличаться oт давления на метеoстанции, в зависимoсти oт услoвий рельефа (при пoдъёме на 10 м давление пoнижается примернo на 1 мм рт.ст.).